Snoqualmie Pass
Mt. Washington
Latest observation 08/31 19:00 PDT
| Time (PDT) | Temp °F 4340' | Dir ° 4340' | RH % 4340' | SR W/m² 4340' |
|---|---|---|---|---|
| 08/31 19:00 | 65 | 180 | 46 | 10 |
| 08/31 18:00 | 65 | 140 | 42 | 10 |
| 08/31 17:00 | 67 | 154 | 41 | 10 |
| 08/31 16:00 | 68 | 145 | 40 | 10 |
| 08/31 15:00 | 67 | 162 | 44 | 10 |
| 08/31 14:00 | 66 | 167 | 47 | 10 |
| 08/31 13:00 | 63 | 148 | 51 | 10 |
| 08/31 12:00 | 62 | 152 | 52 | 10 |
| 08/31 11:00 | 59 | 82 | 58 | 10 |
| 08/31 10:00 | 58 | 82 | 60 | 9 |
| 08/31 09:00 | 57 | 64 | 61 | 9 |
| 08/31 08:00 | 55 | 72 | 61 | 9 |
| 08/31 07:00 | 53 | 145 | 64 | 3 |
| 08/31 06:00 | 53 | 86 | 63 | 0 |
| 08/31 05:00 | 52 | 187 | 68 | 0 |
| 08/31 04:00 | 52 | 66 | 65 | 0 |
| 08/31 03:00 | 49 | 22 | 72 | 0 |
| 08/31 02:00 | 47 | 36 | 79 | 0 |
| 08/31 01:00 | 47 | 69 | 82 | 0 |
| 08/31 00:00 | 45 | 40 | 89 | 0 |
| 08/30 23:00 | 46 | 62 | 87 | 0 |
| 08/30 22:00 | 46 | 63 | 86 | 0 |
| 08/30 21:00 | 46 | 79 | 88 | 0 |
| 08/30 20:00 | 46 | 100 | 87 | 7 |
| 08/30 19:00 | 47 | 109 | 83 | 11 |
| 08/30 18:00 | 47 | 134 | 83 | 11 |
| 08/30 17:00 | 48 | 103 | 82 | 11 |
| 08/30 16:00 | 47 | 88 | 81 | 11 |
| 08/30 15:00 | 46 | 99 | 84 | 11 |
| 08/30 14:00 | 46 | 114 | 88 | 11 |
| 08/30 13:00 | 44 | 66 | 87 | 11 |
| 08/30 12:00 | 43 | 96 | 73 | 11 |
| 08/30 11:00 | 43 | 103 | 78 | 11 |
| 08/30 10:00 | 42 | 178 | 100 | 11 |
| 08/30 09:00 | 42 | 201 | 100 | 11 |
| 08/30 08:00 | 40 | 120 | 100 | 9 |
| 08/30 07:00 | 40 | 230 | 100 | 4 |
| 08/30 06:00 | 40 | 192 | 100 | 0 |
| 08/30 05:00 | 40 | 208 | 100 | 0 |
| 08/30 04:00 | 40 | 200 | 100 | 0 |
| 08/30 03:00 | 41 | 195 | 100 | 0 |
| 08/30 02:00 | 41 | 185 | 100 | 0 |
| 08/30 01:00 | 41 | 187 | 100 | 0 |
| 08/30 00:00 | 42 | 210 | 100 | 0 |
| 08/29 23:00 | 42 | 199 | 100 | 0 |
| 08/29 22:00 | 43 | 196 | 100 | 0 |
| 08/29 21:00 | 44 | 200 | 100 | 0 |
| 08/29 20:00 | 44 | 202 | 23 | 4 |
| 08/29 19:00 | 45 | 229 | 39 | 10 |
| 08/29 18:00 | 47 | 207 | 85 | 11 |
| 08/29 17:00 | 48 | 200 | 56 | 11 |
| 08/29 16:00 | 45 | 196 | 60 | 11 |
| 08/29 15:00 | 43 | 197 | 98 | 11 |
| 08/29 14:00 | 43 | 209 | 99 | 11 |
| 08/29 13:00 | 42 | 215 | 100 | 11 |
| 08/29 12:00 | 42 | 206 | 100 | 11 |
| 08/29 11:00 | 41 | 196 | 100 | 11 |
| 08/29 10:00 | 38 | 178 | 100 | 11 |
| 08/29 09:00 | 40 | 199 | 100 | 9 |
| 08/29 08:00 | 41 | 194 | 100 | 6 |
| 08/29 07:00 | 41 | 244 | 100 | 2 |
| 08/29 06:00 | 41 | 226 | 100 | 0 |
| 08/29 05:00 | 42 | 205 | 100 | 0 |
| 08/29 04:00 | 42 | 188 | 100 | 0 |
| 08/29 03:00 | 43 | 188 | 100 | 0 |
| 08/29 02:00 | 44 | 190 | 83 | 0 |
| 08/29 01:00 | 45 | 184 | 29 | 0 |
| 08/29 00:00 | 46 | 188 | 68 | 0 |
| 08/28 23:00 | 47 | 190 | 95 | 0 |
| 08/28 22:00 | 46 | 186 | 94 | 0 |
| 08/28 21:00 | 46 | 180 | 93 | 0 |
| 08/28 20:00 | 48 | 186 | 91 | 6 |
| 08/28 19:00 | 49 | 214 | 86 | 10 |
| 08/28 18:00 | 51 | 195 | 83 | 11 |
| 08/28 17:00 | 54 | 194 | 77 | 10 |
| 08/28 16:00 | 53 | 198 | 78 | 11 |
| 08/28 15:00 | 55 | 200 | 75 | 11 |
| 08/28 14:00 | 51 | 212 | 84 | 11 |
| 08/28 13:00 | 49 | 177 | 90 | 11 |
| 08/28 12:00 | 48 | 129 | 91 | 11 |
| 08/28 11:00 | 47 | 81 | 92 | 11 |
| 08/28 10:00 | 46 | 69 | 76 | 11 |
| 08/28 09:00 | 45 | 122 | 100 | 11 |
| 08/28 08:00 | 45 | 83 | 98 | 10 |
| 08/28 07:00 | 45 | 90 | 83 | 4 |
| 08/28 06:00 | 45 | 183 | 100 | 0 |
| 08/28 05:00 | 46 | 232 | 75 | 0 |
| 08/28 04:00 | 46 | 247 | 91 | 0 |
| 08/28 03:00 | 45 | 17 | 94 | 0 |
| 08/28 02:00 | 45 | 185 | 91 | 0 |
| 08/28 01:00 | 45 | 197 | 100 | 0 |
| 08/28 00:00 | 45 | 189 | 82 | 0 |
| 08/27 23:00 | 47 | 202 | 94 | 0 |
| 08/27 22:00 | 48 | 198 | 96 | 0 |
| 08/27 21:00 | 49 | 187 | 93 | 0 |
| 08/27 20:00 | 51 | 196 | 87 | 8 |
| 08/27 19:00 | 52 | 233 | 83 | 10 |
| 08/27 18:00 | 53 | 203 | 80 | 11 |
| 08/27 17:00 | 53 | 218 | 81 | 11 |
| 08/27 16:00 | 53 | 217 | 82 | 11 |
| 08/27 15:00 | 53 | 211 | 83 | 11 |
| 08/27 14:00 | 51 | 225 | 87 | 11 |
| 08/27 13:00 | 51 | 199 | 87 | 11 |
| 08/27 12:00 | 52 | 210 | 78 | 11 |
| 08/27 11:00 | 51 | 217 | 80 | 11 |
| 08/27 10:00 | 49 | 199 | 88 | 11 |
| 08/27 09:00 | 49 | 203 | 92 | 10 |
| 08/27 08:00 | 49 | 200 | 92 | 9 |
| 08/27 07:00 | 49 | 201 | 91 | 1 |
| 08/27 06:00 | 49 | 208 | 90 | 0 |
| 08/27 05:00 | 50 | 207 | 88 | 0 |
| 08/27 04:00 | 52 | 208 | 83 | 0 |
| 08/27 03:00 | 52 | 163 | 83 | 0 |
| 08/27 02:00 | 53 | 155 | 78 | 0 |
| 08/27 01:00 | 53 | 203 | 77 | 0 |
| 08/27 00:00 | 54 | 257 | 77 | 0 |
| 08/26 23:00 | 53 | 293 | 80 | 0 |
| 08/26 22:00 | 54 | 273 | 76 | 0 |
| 08/26 21:00 | 54 | 216 | 75 | 0 |
| 08/26 20:00 | 55 | 282 | 74 | 7 |
| 08/26 19:00 | 58 | 205 | 66 | 10 |
| 08/26 18:00 | 61 | 175 | 57 | 11 |
| 08/26 17:00 | 61 | 199 | 59 | 10 |
| 08/26 16:00 | 64 | 187 | 48 | 11 |
| 08/26 15:00 | 66 | 187 | 43 | 10 |
| 08/26 14:00 | 64 | 209 | 49 | 10 |
| 08/26 13:00 | 63 | 222 | 52 | 10 |
| 08/26 12:00 | 63 | 206 | 51 | 10 |
| 08/26 11:00 | 61 | 194 | 55 | 10 |
| 08/26 10:00 | 58 | 200 | 59 | 10 |
| 08/26 09:00 | 57 | 218 | 68 | 10 |
| 08/26 08:00 | 55 | 203 | 82 | 9 |
| 08/26 07:00 | 55 | 233 | 83 | 4 |
| 08/26 06:00 | 55 | 234 | 83 | 0 |
| 08/26 05:00 | 56 | 205 | 87 | 0 |
| 08/26 04:00 | 57 | 185 | 81 | 0 |
| 08/26 03:00 | 59 | 179 | 68 | 0 |
| 08/26 02:00 | 62 | 152 | 50 | 0 |
| 08/26 01:00 | 63 | 76 | 48 | 0 |
| 08/26 00:00 | 62 | 24 | 55 | 0 |
| 08/25 23:00 | 62 | 41 | 62 | 0 |
| 08/25 22:00 | 63 | 89 | 55 | 0 |
| 08/25 21:00 | 64 | 59 | 54 | 0 |
| 08/25 20:00 | 63 | 175 | 56 | 7 |
| 08/25 19:00 | 65 | 223 | 59 | 10 |
| 08/25 18:00 | 67 | 205 | 57 | 10 |
| 08/25 17:00 | 67 | 177 | 55 | 10 |
| 08/25 16:00 | 69 | 202 | 53 | 10 |
| 08/25 15:00 | 69 | 199 | 51 | 10 |
| 08/25 14:00 | 69 | 57 | 41 | 10 |
| 08/25 13:00 | 71 | 80 | 35 | 10 |
| 08/25 12:00 | 71 | 100 | 34 | 10 |
| 08/25 11:00 | 71 | 111 | 34 | 10 |
| 08/25 10:00 | 70 | 93 | 33 | 10 |
| 08/25 09:00 | 69 | 82 | 32 | 10 |
| 08/25 08:00 | 67 | 97 | 32 | 8 |
| 08/25 07:00 | 66 | 188 | 31 | 4 |
| 08/25 06:00 | 66 | 189 | 31 | 0 |
| 08/25 05:00 | 65 | 182 | 32 | 0 |
| 08/25 04:00 | 64 | 161 | 35 | 0 |
| 08/25 03:00 | 65 | 130 | 32 | 0 |
| 08/25 02:00 | 65 | 121 | 31 | 0 |
| 08/25 01:00 | 65 | 111 | 32 | 0 |
| 08/25 00:00 | 65 | 95 | 36 | 0 |
| 08/24 23:00 | 65 | 84 | 37 | 0 |
| 08/24 22:00 | 65 | 87 | 39 | 0 |
| 08/24 21:00 | 66 | 70 | 37 | 2 |
| 08/24 20:00 | 67 | 126 | 36 | 9 |

